Regional Weather Roundup
Issued by NWS

Home | Current Version | Previous Version | Graphics & Text | Print | Product List | Glossary On
Versions: 1 2 3 4 5 6 7 8 9 10 11 12 13 14 15 16 17 18 19 20 21 22 23 24 25 26 27 28 29 30 31 32 33 34 35 36 37 38 39 40 41 42 43 44 45 46 47 48 49 50
000
ASUS43 KDTX 041810
RWRMI
MICHIGAN HOURLY REGIONAL WEATHER ROUNDUP
NATIONAL WEATHER SERVICE DETROIT/PONTIAC MI
200 PM EDT MON MAY 04 2015

NOTE: "FAIR" INDICATES FEW OR NO CLOUDS BELOW 12,000 FEET WITH NO
SIGNIFICANT WEATHER AND/OR OBSTRUCTION TO VISIBILITY.

MIZ047>049-052>055-059>063-066>070-074>076-081>083-041900-
SOUTHEAST LOWER MICHIGAN

CITY           SKY/WX    TMP DP  RH WIND       PRES   REMARKS
ADRIAN         CLOUDY    67  58  72 W9G20     30.10S
6HR MIN TEMP:  61; 6HR MAX TEMP:  69; 6HR PCP: TRACE;

ALMA           CLOUDY    70  57  63 W12       30.07R
ANN ARBOR      PTSUNNY   75  58  55 W15       30.07S
BAD AXE        CLOUDY    67  54  62 W14       30.04R
CARO           CLOUDY    69  58  70 W12       30.04R
DETROIT CITY   CLOUDY    70  57  63 SW13G21   30.05F
6HR MIN TEMP:  63; 6HR MAX TEMP:  71; 6HR PCP:  0.03;

DETROIT        CLOUDY    73  58  59 SW15G24   30.08S
6HR MIN TEMP:  64; 6HR MAX TEMP:  76; 6HR PCP:  0.10;

FLINT          CLOUDY    73  57  57 W22       30.05R
6HR MIN TEMP:  60; 6HR MAX TEMP:  76; 6HR PCP:  0.04;

GROSSE ILE     CLOUDY    64  57  77 S10       30.08R
HILLSDALE      CLOUDY    74  57  55 W13G18    30.10S
6HR MIN TEMP:  61; 6HR MAX TEMP:  74;

HOWELL         CLOUDY    74  53  48 W15G23    30.06R
6HR MIN TEMP:  60; 6HR MAX TEMP:  74;


CITY           SKY/WX    TMP DP  RH WIND       PRES   REMARKS
JACKSON        CLOUDY    73  56  54 W14       30.07S
6HR MIN TEMP:  61; 6HR MAX TEMP:  73; 6HR PCP:  0.03;

LAMBERTVILLE   DRIZZLE   66  59  77 SW10      30.11F
LANSING        CLOUDY    71  56  58 W17G24    30.08R
6HR MIN TEMP:  61; 6HR MAX TEMP:  72; 6HR PCP:  0.01;

LAPEER         CLOUDY    71  55  56 W12G23    30.05R
MASON          CLOUDY    72  54  52 W16G25    30.07S
MONROE         CLOUDY    66  57  72 SW13      30.08R
MT. CLEMENS    PTSUNNY   71  58  62 SW15      30.02F
6HR MIN TEMP:  61; 6HR MAX TEMP:  72; 6HR PCP:  0.04;

PONTIAC        CLOUDY    75  54  47 W20       30.04S
6HR MIN TEMP:  62; 6HR MAX TEMP:  76;

PORT HOPE        N/A     59  54  83 N3        30.02R
6HR MIN TEMP:  54; 6HR MAX TEMP:  66; 6HR PCP:  0.05;

PORT HURON     CLOUDY    73  55  53 SW9G16    30.03F
TRI CITIES     CLOUDY    70  56  61 W8        30.05R
6HR MIN TEMP:  61; 6HR MAX TEMP:  71; 6HR PCP: TRACE;

MIDLAND        CLOUDY    68  56  63 NW9       30.05R
TROY           PTSUNNY   76  55  48 W14G21    30.06S
SAGINAW HB     CLOUDY    70  55  60 W12       30.04R
$$
MIZ043>046-050>051-056>058-064>065-071>073-077>080-041900-
SOUTHWEST LOWER MICHIGAN

CITY           SKY/WX    TMP DP  RH WIND       PRES   REMARKS
BATTLE CREEK   CLOUDY    73  57  57 W16G22    30.09S
6HR MIN TEMP:  62; 6HR MAX TEMP:  73; 6HR PCP: TRACE;

BENTON HARBOR  MOSUNNY   64  57  78 W8        30.12R
6HR MIN TEMP:  56; 6HR MAX TEMP:  66;

BIG RAPIDS     PTSUNNY   69  55  60 NW9       30.07R
6HR MIN TEMP:  58; 6HR MAX TEMP:  69;

COLDWATER      PTSUNNY   72  57  60 W12G17    30.09S
6HR MIN TEMP:  59; 6HR MAX TEMP:  72;

FREMONT        PTSUNNY   70  55  59 W5        30.07S
HOLLAND        CLOUDY    61  56  83 W12       30.12R
6HR MIN TEMP:  56; 6HR MAX TEMP:  63;

GRAND RAPIDS   CLOUDY    69  57  65 W13       30.08S
6HR MIN TEMP:  61; 6HR MAX TEMP:  69;

IONIA          FAIR      71  57  62 W15G21    30.07R
KALAMAZOO      CLOUDY    72  57  59 W13       30.09S
6HR MIN TEMP:  63; 6HR MAX TEMP:  72; 6HR PCP: TRACE;

LUDINGTON      SUNNY     71  43  36 N8G21     30.10R
MARSHALL       CLOUDY    72  55  55 W15G22    30.08S
MOUNT PLEASANT CLOUDY    69  57  65 N8        30.05R
6HR MIN TEMP:  60; 6HR MAX TEMP:  70; 6HR PCP:  0.02;

MUSKEGON       CLOUDY    58  51  78 W6        30.10R
6HR MIN TEMP:  51; 6HR MAX TEMP:  65;

SOUTH HAVEN    PTSUNNY   65  57  73 NW8       30.11S
$$
MIZ016>042-041900-
NORTHERN LOWER MICHIGAN

CITY           SKY/WX    TMP DP  RH WIND       PRES   REMARKS
ALPENA         PTSUNNY   70  45  40 NW15G22   30.02R
6HR MIN TEMP:  58; 6HR MAX TEMP:  71; 6HR PCP:  0.04;

BEAVER ISLAND  SUNNY     60  40  47 NW12G17   30.10R
6HR MIN TEMP:  48; 6HR MAX TEMP:  62;

BELLAIRE       MOSUNNY   63  43  48 W7        30.08S
6HR MIN TEMP:  55; 6HR MAX TEMP:  66;

CADILLAC       MOSUNNY   68  39  34 N13G20    30.08R
CHARLEVOIX     MOSUNNY   56  44  63 W7        30.13R
6HR MIN TEMP:  50; 6HR MAX TEMP:  57;

FRANKFORT      SUNNY     64  40  41 N8        30.11R
GAYLORD        MOSUNNY   67  36  31 VRB5G18   30.06R
6HR MIN TEMP:  56; 6HR MAX TEMP:  67; 6HR PCP: TRACE;

GRAYLING       MOSUNNY   69  40  35 NW13G22   30.07R
6HR MIN TEMP:  56; 6HR MAX TEMP:  70;

HARBOR SPRINGS MOSUNNY   47  40  77 SW7       30.08R
HOUGHTON LAKE  PTSUNNY   69  44  40 NW16      30.07
6HR MIN TEMP:  57; 6HR MAX TEMP:  69;

MANISTEE       SUNNY     64  45  48 NW10      30.11R
OSCODA         CLOUDY    68  58  71 NW7       30.01S
PELLSTON       MOSUNNY   67  43  41 NW13G20   30.07R
6HR MIN TEMP:  55; 6HR MAX TEMP:  67; 6HR PCP: TRACE;

ROGERS CITY    MOSUNNY   67  46  46 NW15      30.04R
TRAVERSE CITY  MOSUNNY   61  43  51 NE8       30.09R
6HR MIN TEMP:  55; 6HR MAX TEMP:  64; 6HR PCP: TRACE;

$$
MIZ007>008-015-041900-
EASTERN UPPER MICHIGAN

CITY           SKY/WX    TMP DP  RH WIND       PRES   REMARKS
KINROSS        SUNNY     61  45  55 NW20G26   30.04R
6HR MIN TEMP:  52; 6HR MAX TEMP:  61;

MACKINAC ISLAN SUNNY     64  38  38 NW8       30.05R
6HR MIN TEMP:  46; 6HR MAX TEMP:  65;

NEWBERRY       SUNNY     59  40  49 NW15G28   30.08R
6HR MIN TEMP:  51; 6HR MAX TEMP:  60;

S. S. MARIE    SUNNY     59  45  59 NW12G18   30.05R
6HR MIN TEMP:  51; 6HR MAX TEMP:  59;

MUNISING         N/A     50  38  63 NW17      30.15R
6HR MIN TEMP:  46; 6HR MAX TEMP:  50;

$$
MIZ004>006-011>014-085-041900-
CENTRAL UPPER MICHIGAN

CITY           SKY/WX    TMP DP  RH WIND       PRES   REMARKS
MANISTIQUE     SUNNY     61  38  43 NW20G26   30.11R
6HR MIN TEMP:  49; 6HR MAX TEMP:  62;

ESCANABA       SUNNY     64  39  39 N12G17    30.12R
6HR MIN TEMP:  54; 6HR MAX TEMP:  64;

MENOMINEE      SUNNY     61  43  51 E10       30.12R
6HR MIN TEMP:  57; 6HR MAX TEMP:  66;

SAWYER-GWINN   SUNNY     57  37  47 NE17G25   30.14R
$$
MIZ001>003-009>011-084-041900-
WESTERN UPPER MICHIGAN

CITY           SKY/WX    TMP DP  RH WIND       PRES   REMARKS
IRON MOUNTAIN  SUNNY     66  34  30 N10       30.13R
6HR MIN TEMP:  53; 6HR MAX TEMP:  66;

HOUGHTON       SUNNY     58  36  43 NW10G20   30.16R
6HR MIN TEMP:  47; 6HR MAX TEMP:  58;

COPPER HARBOR    N/A     53  38  56 N18       30.15R
6HR MIN TEMP:  47; 6HR MAX TEMP:  53;

IRONWOOD       MOSUNNY   57  34  41 N10       30.17S
6HR MIN TEMP:  45; 6HR MAX TEMP:  57;

$$

ABBREVIATIONS USED IN REMARKS
   TC - TEMPERATURE IN CELSIUS
  WCI - WIND CHILL INDEX
   HX - HEAT INDEX
  VSB - VISIBILITY



USA.gov is the U.S. government's official web portal to all federal, state and local government web resources and services.